[[{"header":{"parameterUnit":"m.s-1","parameterCategory":2,"la1":30.2991,"la2":30.254,"lo1":-89.0895,"lo2":-89.0444,"dy":0.0017,"dx":0.0017,"nx":28,"ny":28,"refTime":"2025-02-08T03:00:00:Z","depth":"0","parameterNumber":2,"parameterNumberName":"U-component_of_CURRENTS"},"data":[0,0,0,0,0,0,0,0,0,0,0,0,0,0,0,0,0,0,0,0,0,0,0,0,0,0,0,0,0,0,0,0,0,0,0,0,0,0,0,0,0,0,0,0,0,0,0,0,0,0,0,0,0,0,0,0,0,0,0.2653,0.2654,0,0.2715,0.2715,0.2716,0.2719,0.2718,0.2718,0.2717,0.2736,0.2737,0.2737,0,0,0,0,0,0,0,0,0,0,0,0,0,0.2557,0.2558,0.2653,0.2654,0.2655,0.2715,0.2715,0.2716,0.2719,0.2718,0.2718,0.2717,0.2735,0.2736,0.2738,0,0,0,0,0,0,0,0,0,0,0,0,0,0.2604,0.2559,0.2653,0.2666,0.2668,0.2714,0.2715,0.2716,0.2719,0.2718,0.2718,0.2717,0.2735,0.2736,0.2738,0.2762,0,0,0.2742,0.2743,0,0,0,0,0,0,0,0,0.2601,0.2607,0.2663,0.2665,0.2667,0.271,0.2688,0.273,0.2719,0.2697,0.2717,0.2717,0.2725,0.2727,0.2738,0.2763,0.2763,0.2742,0.2743,0.2744,0.2744,0,0,0,0,0,0,0,0.2598,0.2605,0.2675,0.2664,0.2667,0.2674,0.268,0.2696,0.2712,0.2699,0.27,0.2711,0.2726,0.2737,0.2738,0.2764,0.2742,0.2743,0.2744,0.2745,0.2832,0.2833,0,0,0,0,0,0,0.2595,0.2602,0.2673,0.2677,0.2634,0.2677,0.2683,0.2695,0.2713,0.2716,0.2711,0.2711,0.2735,0.2737,0.2739,0.2793,0.2744,0.2745,0.2746,0.283,0.2832,0.2834,0,0,0,0,0,0,0.2593,0.2601,0.2671,0.2642,0.2652,0.2679,0.2693,0.2697,0.2711,0.2723,0.2724,0.2722,0.2734,0.2737,0.2768,0.2792,0.2746,0.2747,0.2829,0.2831,0.2833,0.2885,0,0,0,0,0,0,0.259,0.26,0.2609,0.2642,0.2654,0.2708,0.2695,0.2699,0.272,0.272,0.2733,0.2734,0.2734,0.2767,0.277,0.2794,0.2748,0.2827,0.283,0.2832,0.2881,0.2889,0.2895,0,0,0,0,0,0.2586,0.2605,0.2609,0.2618,0.2665,0.2709,0.2716,0.2731,0.2721,0.2738,0.2749,0.2733,0.2786,0.2769,0.2773,0.2797,0.2826,0.2829,0.2832,0.2878,0.2887,0.2895,0,0,0,0,0,0,0.2565,0.2609,0.2613,0.2643,0.2677,0.2711,0.2729,0.2736,0.2758,0.2756,0.2756,0.2759,0.2796,0.2792,0.2773,0.2831,0.2802,0.2806,0.2836,0.2844,0.2851,0.285,0.2749,0,0,0,0,0,0.2566,0.2592,0.2632,0.2656,0.2674,0.2701,0.2719,0.2732,0.2757,0.2765,0.2775,0.2789,0.2814,0.2823,0.2842,0.2875,0.2925,0.2892,0.2899,0.2904,0.2907,0.3031,0.3051,0.2844,0.2844,0.2844,0,0,0.2562,0.2592,0.2605,0.2654,0.2679,0.2714,0.271,0.2746,0.2773,0.2764,0.28,0.2815,0.2829,0.2869,0.2884,0.2866,0.2992,0.2908,0.2913,0.2913,0.3037,0.3058,0.3076,0.2847,0.2846,0.2846,0,0,0.2574,0.2598,0.2624,0.2657,0.2703,0.2727,0.2739,0.2779,0.2794,0.2836,0.2838,0.2868,0.2899,0.2919,0.2931,0.2985,0.3026,0.299,0.3021,0.3142,0.3161,0.3178,0.3281,0.3307,0.299,0.299,0.299,0,0.2565,0.2605,0.2639,0.2675,0.27,0.2733,0.2764,0.2796,0.2839,0.2866,0.2852,0.2928,0.2925,0.2988,0.2998,0.3,0.3079,0.2988,0.3154,0.3171,0.3188,0.3289,0.3317,0.2993,0.2992,0.2992,0.2992,0,0.2597,0.263,0.2651,0.2706,0.2739,0.2775,0.2821,0.2859,0.2879,0.2914,0.2982,0.2997,0.3045,0.3045,0.3032,0.3139,0.3162,0.3154,0.3136,0.3212,0.3314,0.3342,0.2997,0.2996,0.2995,0.2994,0,0,0.2568,0.2655,0.266,0.269,0.2756,0.2789,0.2845,0.2912,0.297,0.3007,0.3089,0.3107,0.3129,0.3143,0.3145,0.3223,0.3389,0.3234,0.3239,0.3341,0.3674,0.3623,0.3648,0.3432,0.3437,0.344,0.3704,0,0.2578,0.2641,0.2683,0.2742,0.2778,0.2831,0.2887,0.2953,0.3017,0.3113,0.3149,0.3229,0.3166,0.3208,0.3275,0.3375,0.3464,0.3318,0.358,0.3588,0.3537,0.3679,0.3587,0.3809,0.3731,0.3736,0.3739,0,0.2587,0.2632,0.2682,0.2771,0.2792,0.2832,0.2938,0.3,0.3136,0.3193,0.3279,0.3335,0.3442,0.3387,0.3594,0.3518,0.3594,0.3657,0.3669,0.3619,0.3588,0.3718,0.3863,0.3745,0.3782,0.3779,0.3776,0,0.2545,0.263,0.2667,0.2695,0.2799,0.2834,0.2898,0.302,0.3103,0.3269,0.3365,0.349,0.3587,0.3706,0.379,0.374,0.4033,0.3987,0.4011,0.4008,0.3976,0.3961,0.4036,0.415,0.4149,0.4148,0.4147,0,0.2537,0.257,0.2653,0.2677,0.2751,0.282,0.2923,0.3016,0.3169,0.3287,0.3408,0.3523,0.368,0.384,0.3895,0.4047,0.4129,0.4055,0.409,0.3989,0.3973,0.39,0.3842,0.4158,0.4156,0.4154,0.4152,0,0.2496,0.2541,0.2601,0.2699,0.2735,0.2791,0.2941,0.3022,0.3175,0.3343,0.341,0.3626,0.3828,0.3963,0.4185,0.4193,0.4229,0.435,0.4204,0.4214,0.4085,0.4033,0.4019,0.3891,0.4456,0.4457,0.4457,0,0.2485,0.2507,0.2611,0.2654,0.2701,0.2795,0.2861,0.3009,0.3104,0.3377,0.3455,0.3715,0.3855,0.4169,0.4267,0.4427,0.4257,0.4412,0.4268,0.4099,0.4071,0.3872,0.3748,0.4268,0.4267,0.4266,0.4265,0,0.2488,0.2517,0.2575,0.2647,0.2708,0.2783,0.289,0.2962,0.3139,0.328,0.3467,0.3613,0.3929,0.4067,0.4289,0.4354,0.4205,0.4395,0.4291,0.3993,0.3718,0.3603,0.4054,0.4257,0.4258,0.4258,0.4259,0.4259,0.2506,0.2519,0.2583,0.2647,0.2703,0.274,0.2767,0.2879,0.2994,0.3173,0.3373,0.3552,0.3865,0.4161,0.419,0.4209,0.4136,0.4137,0.4117,0.395,0.3721,0.4128,0.4304,0.4305,0.4306,0.4306,0.4307,0,0.2506,0.2515,0.2582,0.262,0.2631,0.2683,0.2756,0.2755,0.2814,0.3031,0.3181,0.3501,0.371,0.3908,0.4075,0.3968,0.3769,0.3875,0.3592,0.3503,0.3971,0.3851,0.3849,0.3849,0.3849,0.3849,0.385,0.385,0.251,0.2533,0.2539,0.2535,0.2544,0.2502,0.2504,0.2523,0.2633,0.2782,0.2949,0.3168,0.3556,0.3886,0.3866,0.3775,0.3443,0.3347,0.3263,0.3619,0.3639,0.3659,0.353,0.3461,0.3461,0.2654,0.2648,0.2644]},{"header":{"parameterUnit":"m.s-1","parameterCategory":2,"la1":30.2991,"la2":30.254,"lo1":-89.0895,"lo2":-89.0444,"dy":0.0017,"dx":0.0017,"nx":28,"ny":28,"refTime":"2025-02-08T03:00:00:Z","depth":"0","parameterNumber":3,"parameterNumberName":"V-component_of_CURRENTS"},"data":[0,0,0,0,0,0,0,0,0,0,0,0,0,0,0,0,0,0,0,0,0,0,0,0,0,0,0,0,0,0,0,0,0,0,0,0,0,0,0,0,0,0,0,0,0,0,0,0,0,0,0,0,0,0,0,0,0,0,0.0072,0.0071,0,-0.001,-0.0012,-0.0013,-0.0071,-0.0071,-0.0072,-0.0072,-0.0202,-0.0205,-0.0208,0,0,0,0,0,0,0,0,0,0,0,0,0,0.0135,0.0134,0.0072,0.0071,0.007,-0.001,-0.0012,-0.0013,-0.0071,-0.0071,-0.0072,-0.0072,-0.0201,-0.0205,-0.0209,0,0,0,0,0,0,0,0,0,0,0,0,0,0.0084,0.0134,0.0072,0.0033,0.0028,-0.001,-0.0012,-0.0013,-0.0071,-0.0072,-0.0072,-0.0072,-0.02,-0.0204,-0.0209,-0.0229,0,0,-0.0224,-0.0226,0,0,0,0,0,0,0,0,0.0087,0.0081,0.0039,0.0035,0.0031,-0.0029,-0.0037,-0.0087,-0.0071,-0.0035,-0.0072,-0.0073,-0.0147,-0.0156,-0.0173,-0.0235,-0.0241,-0.0224,-0.0227,-0.0229,-0.023,0,0,0,0,0,0,0,0.0091,0.0084,0.0037,0.0038,0.0033,0.0004,-0.0003,-0.0047,-0.009,-0.0038,-0.0042,-0.0048,-0.015,-0.0168,-0.0176,-0.0243,-0.0224,-0.0228,-0.0231,-0.0233,-0.0338,-0.0338,0,0,0,0,0,0,0.0107,0.0088,0.004,0.0035,0.006,0.0004,-0.0005,-0.0011,-0.0089,-0.01,-0.0048,-0.0051,-0.016,-0.0171,-0.0181,-0.0208,-0.0229,-0.0234,-0.0236,-0.0338,-0.0338,-0.0338,0,0,0,0,0,0,0.0109,0.0104,0.0043,0.0061,0.0052,0.0004,-0.0003,-0.0013,-0.003,-0.0095,-0.0108,-0.0055,-0.016,-0.0174,-0.0211,-0.0214,-0.0236,-0.024,-0.0338,-0.0338,-0.0338,-0.0264,0,0,0,0,0,0,0.0111,0.0105,0.0106,0.0062,0.0051,0.0028,-0.0003,-0.0014,-0.0032,-0.0037,-0.0106,-0.0118,-0.0162,-0.0203,-0.0215,-0.0221,-0.0244,-0.0339,-0.0338,-0.0338,-0.0267,-0.0262,-0.0257,0,0,0,0,0,0.0113,0.0123,0.0107,0.0101,0.0055,0.0029,0.0021,-0.0017,-0.0032,-0.0035,-0.0077,-0.0116,-0.0212,-0.0206,-0.0221,-0.0228,-0.0339,-0.0338,-0.0338,-0.0269,-0.0263,-0.0257,0,0,0,0,0,0,0.0151,0.0117,0.0098,0.0096,0.0068,0.002,0.0016,-0.001,-0.0046,-0.005,-0.0112,-0.0128,-0.0162,-0.0203,-0.0196,-0.0259,-0.0283,-0.0286,-0.0225,-0.022,-0.0215,-0.0182,-0.0248,0,0,0,0,0,0.0161,0.0159,0.0119,0.0118,0.0107,0.0062,0.0048,0.0023,-0.0015,-0.0031,-0.0077,-0.0128,-0.0174,-0.02,-0.0244,-0.0276,-0.0271,-0.0292,-0.0287,-0.0283,-0.0266,-0.0248,-0.0239,-0.0338,-0.0338,-0.0338,0,0,0.0174,0.0157,0.0154,0.0126,0.0101,0.0091,0.0052,0.0037,0.0027,-0.004,-0.0063,-0.0111,-0.0177,-0.0211,-0.0232,-0.0246,-0.025,-0.0283,-0.0278,-0.0263,-0.0247,-0.0237,-0.0228,-0.0338,-0.0338,-0.0338,0,0,0.0205,0.0186,0.0195,0.0177,0.0148,0.0119,0.0119,0.0075,0.0054,0.0028,-0.0025,-0.0066,-0.0134,-0.018,-0.0213,-0.0208,-0.0222,-0.0231,-0.0185,-0.0168,-0.0158,-0.015,-0.0116,-0.0105,-0.0232,-0.0232,-0.0232,0,0.0223,0.0225,0.0193,0.0197,0.0187,0.0137,0.0141,0.0113,0.0064,0.0062,0.0032,-0.0045,-0.0117,-0.0148,-0.0162,-0.0197,-0.0176,-0.02,-0.0157,-0.015,-0.0143,-0.011,-0.0099,-0.0228,-0.0229,-0.0229,-0.0229,0,0.0257,0.0257,0.0263,0.0249,0.0234,0.0232,0.0191,0.0181,0.0151,0.0128,0.0104,0.0022,-0.0012,-0.0062,-0.0121,-0.0117,-0.0113,-0.0147,-0.0163,-0.0127,-0.0096,-0.0086,-0.0223,-0.0224,-0.0225,-0.0226,0,0,0.0298,0.0289,0.0291,0.0301,0.0263,0.0263,0.025,0.0236,0.0276,0.0203,0.0253,0.012,0.0102,0.0062,-0.001,-0.0029,0.0012,-0.0067,-0.0068,-0.0016,0.0081,0.0043,0.005,-0.0003,-0.0002,-0.0,0.0089,0,0.0333,0.0359,0.0337,0.0361,0.037,0.0332,0.0346,0.033,0.0324,0.0366,0.0278,0.0298,0.0143,0.0159,0.0104,0.0058,0.004,-0.0008,0.0023,0.0025,0.0,0.006,0.0015,0.0088,0.0099,0.01,0.0102,0,0.037,0.0384,0.0415,0.0441,0.0446,0.0462,0.0503,0.0512,0.0538,0.0549,0.0534,0.0502,0.0456,0.0345,0.0261,0.0248,0.0166,0.0108,0.011,0.0058,0.0005,0.0048,0.0105,-0.0138,0.0117,0.0115,0.0114,0,0.0422,0.0441,0.0474,0.0477,0.0496,0.0525,0.0548,0.0577,0.0657,0.0704,0.0807,0.0711,0.0757,0.0611,0.0441,0.0384,0.038,0.0296,0.0181,0.0178,0.0136,0.0127,-0.0025,0.0248,0.0247,0.0247,0.0247,0,0.0467,0.0498,0.0516,0.054,0.0642,0.0613,0.0747,0.0768,0.0873,0.103,0.0932,0.1054,0.0834,0.0788,0.0566,0.0422,0.048,0.0217,0.0204,0.016,0.0151,-0.0068,-0.02,0.0251,0.025,0.0249,0.0249,0,0.0533,0.0524,0.0591,0.0636,0.0675,0.0758,0.0917,0.1037,0.1104,0.1324,0.1372,0.1377,0.1311,0.1066,0.0884,0.0648,0.0335,0.0391,0.0357,0.0335,-0.003,-0.0154,-0.0275,-0.0373,0.0303,0.0303,0.0303,0,0.0575,0.0611,0.0702,0.0794,0.0833,0.0962,0.1088,0.1162,0.1321,0.1528,0.1673,0.1682,0.169,0.1396,0.0978,0.0627,0.0373,0.0372,0.0216,-0.0033,-0.0181,-0.0274,-0.0355,0.0203,0.0202,0.0201,0.02,0,0.0701,0.073,0.0804,0.0983,0.1122,0.1275,0.1456,0.1612,0.1745,0.1915,0.2121,0.2137,0.1854,0.1481,0.0992,0.0711,0.0188,0.0343,0.0098,-0.0258,-0.0377,-0.0481,0.0136,0.0192,0.0193,0.0194,0.0194,0.0194,0.0847,0.0932,0.1053,0.1223,0.1372,0.1577,0.1729,0.1922,0.2161,0.2405,0.2419,0.2454,0.1899,0.121,0.0832,0.0103,0.0126,-0.0139,-0.0255,-0.0315,-0.0468,0.0136,0.0155,0.0155,0.0156,0.0156,0.0156,0,0.1047,0.1138,0.1305,0.1494,0.1661,0.1705,0.1977,0.2122,0.2382,0.256,0.2682,0.2396,0.1716,0.1029,0.0062,-0.0417,-0.061,-0.0677,-0.0847,-0.0891,-0.0339,-0.041,-0.0527,-0.0527,-0.0527,-0.0527,-0.0527,-0.0526,0.1184,0.1368,0.1424,0.1725,0.1843,0.2071,0.2213,0.2413,0.2559,0.2716,0.27,0.2657,0.2073,0.0392,-0.0732,-0.0976,-0.1323,-0.1396,-0.1523,-0.121,-0.117,-0.1132,-0.1232,-0.152,-0.1522,-0.2044,-0.205,-0.2054]}],[{"header":{"parameterUnit":"m.s-1","parameterCategory":2,"la1":30.2991,"la2":30.254,"lo1":-89.0895,"lo2":-89.0444,"dy":0.0017,"dx":0.0017,"nx":28,"ny":28,"refTime":"2025-02-08T03:00:00:Z","depth":"2","parameterNumber":2,"parameterNumberName":"U-component_of_CURRENTS"},"data":[0,0,0,0,0,0,0,0,0,0,0,0,0,0,0,0,0,0,0,0,0,0,0,0,0,0,0,0,0,0,0,0,0,0,0,0,0,0,0,0,0,0,0,0,0,0,0,0,0,0,0,0,0,0,0,0,0,0,0.2162,0.2163,0,0.2211,0.2211,0.2212,0.2221,0.222,0.222,0.222,0.2243,0.2243,0.2244,0,0,0,0,0,0,0,0,0,0,0,0,0,0.2084,0.2086,0.2162,0.2163,0.2163,0.2211,0.2211,0.2212,0.2221,0.222,0.222,0.222,0.2242,0.2243,0.2244,0,0,0,0,0,0,0,0,0,0,0,0,0,0.2123,0.2086,0.2162,0.2175,0.2176,0.221,0.2211,0.2212,0.2221,0.222,0.222,0.2219,0.2242,0.2243,0.2244,0.226,0,0,0.2248,0.2249,0,0,0,0,0,0,0,0,0.212,0.2125,0.2172,0.2174,0.2176,0.221,0.2192,0.2227,0.2221,0.2202,0.222,0.2219,0.2231,0.2233,0.2241,0.2261,0.2262,0.2248,0.2249,0.225,0.225,0,0,0,0,0,0,0,0.2118,0.2123,0.218,0.2173,0.2175,0.2181,0.2185,0.2199,0.2216,0.2204,0.2205,0.2213,0.2231,0.224,0.2242,0.2263,0.2248,0.225,0.225,0.2251,0.2344,0.2345,0,0,0,0,0,0,0.2115,0.2121,0.2178,0.2181,0.2148,0.2182,0.2188,0.2199,0.2217,0.222,0.2213,0.2213,0.2238,0.224,0.2243,0.2304,0.225,0.2251,0.2252,0.2342,0.2344,0.2346,0,0,0,0,0,0,0.2113,0.212,0.2176,0.2153,0.2161,0.2184,0.2196,0.22,0.2217,0.2225,0.2227,0.2227,0.2238,0.2241,0.2273,0.2304,0.2252,0.2253,0.234,0.2343,0.2345,0.2401,0,0,0,0,0,0,0.2111,0.2119,0.2129,0.2153,0.2162,0.2204,0.2197,0.2201,0.2222,0.2223,0.2238,0.2239,0.2238,0.2271,0.2274,0.2304,0.2254,0.2338,0.2341,0.2344,0.2397,0.2405,0.2412,0,0,0,0,0,0.2108,0.2122,0.2129,0.2136,0.2174,0.2205,0.221,0.2224,0.2223,0.2237,0.2253,0.2239,0.2293,0.2274,0.2277,0.2308,0.2336,0.234,0.2344,0.2394,0.2403,0.2412,0,0,0,0,0,0,0.2091,0.2125,0.2133,0.2156,0.2183,0.2207,0.2223,0.2232,0.2255,0.2259,0.2259,0.2263,0.2305,0.23,0.2278,0.2345,0.2313,0.2318,0.235,0.2359,0.2367,0.2393,0.2255,0,0,0,0,0,0.2094,0.2117,0.2145,0.2167,0.218,0.2204,0.2219,0.2233,0.2255,0.2265,0.2279,0.2297,0.2323,0.2334,0.2354,0.2388,0.2415,0.2411,0.2419,0.2425,0.245,0.2525,0.2542,0.2358,0.2358,0.2358,0,0,0.2093,0.2116,0.2129,0.2166,0.2187,0.2216,0.2212,0.2244,0.2274,0.2264,0.2311,0.2326,0.2339,0.2382,0.24,0.2381,0.249,0.243,0.2435,0.2457,0.2531,0.2549,0.2565,0.2361,0.2361,0.236,0,0,0.2106,0.2126,0.215,0.2177,0.2217,0.2232,0.2243,0.2279,0.2301,0.2344,0.2353,0.2392,0.2417,0.2447,0.2459,0.2521,0.253,0.2521,0.2579,0.2651,0.2667,0.2681,0.2733,0.2752,0.2522,0.2522,0.2522,0,0.2103,0.2138,0.2161,0.2195,0.2222,0.224,0.2273,0.2301,0.2346,0.2382,0.2364,0.2451,0.2453,0.2527,0.2549,0.254,0.2578,0.254,0.2662,0.2677,0.2691,0.274,0.276,0.2525,0.2525,0.2525,0.2524,0,0.2136,0.2167,0.2185,0.2233,0.2265,0.2297,0.2339,0.238,0.2403,0.2436,0.2517,0.2536,0.2592,0.2594,0.2589,0.2693,0.2687,0.2664,0.2639,0.2713,0.276,0.278,0.253,0.2529,0.2528,0.2527,0,0,0.2117,0.2191,0.2197,0.2234,0.229,0.2323,0.2383,0.245,0.251,0.255,0.2634,0.2678,0.2703,0.2722,0.2729,0.2787,0.2903,0.2774,0.2776,0.2826,0.3065,0.2974,0.2987,0.2908,0.2912,0.2915,0.3055,0,0.2133,0.2192,0.2231,0.2297,0.2332,0.2386,0.2439,0.251,0.2569,0.2655,0.2702,0.2778,0.2747,0.2789,0.2843,0.29,0.296,0.2867,0.2986,0.299,0.2901,0.3008,0.2783,0.2883,0.3075,0.3078,0.308,0,0.2146,0.219,0.2248,0.234,0.2362,0.2408,0.2521,0.2579,0.2698,0.275,0.2842,0.2886,0.2994,0.2944,0.3088,0.3035,0.3065,0.3091,0.3096,0.3011,0.2937,0.2842,0.2911,0.3113,0.3111,0.3108,0.3106,0,0.2117,0.2203,0.2249,0.2281,0.2381,0.2437,0.2497,0.2613,0.269,0.2835,0.2928,0.3024,0.3103,0.317,0.3207,0.3178,0.3345,0.3305,0.3251,0.3244,0.3075,0.3047,0.3414,0.3413,0.3413,0.3413,0.3412,0,0.2112,0.2156,0.2245,0.2277,0.2357,0.2435,0.2545,0.2625,0.2761,0.2858,0.2985,0.3074,0.317,0.326,0.3274,0.3324,0.3401,0.3299,0.3291,0.3085,0.3057,0.3267,0.3249,0.3418,0.3417,0.3416,0.3415,0,0.2076,0.2124,0.2198,0.2309,0.2346,0.2412,0.2564,0.2639,0.2793,0.2935,0.2996,0.3157,0.3275,0.335,0.3448,0.3412,0.3459,0.3442,0.3182,0.314,0.3298,0.3281,0.3446,0.3444,0.3443,0.3442,0.3441,0,0.2068,0.2092,0.221,0.2252,0.2307,0.2415,0.2474,0.2625,0.2698,0.2955,0.2998,0.3195,0.3262,0.3395,0.3378,0.342,0.3451,0.3213,0.3114,0.3335,0.3311,0.3295,0.328,0.2916,0.2911,0.2907,0.2903,0,0.2059,0.2095,0.2156,0.2221,0.2293,0.2372,0.2469,0.253,0.2699,0.2824,0.2947,0.3043,0.3206,0.3132,0.3202,0.3179,0.3192,0.3128,0.3466,0.2926,0.2843,0.2816,0.2818,0.2865,0.2869,0.2872,0.2874,0.2876,0.2051,0.2084,0.2139,0.2188,0.226,0.2293,0.2307,0.2409,0.2491,0.2624,0.2756,0.2832,0.2914,0.2905,0.2841,0.2818,0.3024,0.2902,0.2913,0.2929,0.2826,0.2743,0.2728,0.2731,0.2733,0.2736,0.2737,0,0.1998,0.2038,0.2094,0.2132,0.2136,0.2209,0.2259,0.2229,0.225,0.242,0.2493,0.2363,0.2382,0.2477,0.2399,0.2421,0.2375,0.2324,0.2247,0.2289,0.2325,0.2186,0.1922,0.1919,0.1916,0.1913,0,0,0.1974,0.1979,0.1989,0.1971,0.2001,0.1955,0.1948,0.1933,0.1996,0.2005,0.2048,0.2266,0.2412,0.212,0.2115,0.2004,0.2116,0.1932,0.2599,0.2551,0.2582,0.2688,0.2526,0,0,0,0,0]},{"header":{"parameterUnit":"m.s-1","parameterCategory":2,"la1":30.2991,"la2":30.254,"lo1":-89.0895,"lo2":-89.0444,"dy":0.0017,"dx":0.0017,"nx":28,"ny":28,"refTime":"2025-02-08T03:00:00:Z","depth":"2","parameterNumber":3,"parameterNumberName":"V-component_of_CURRENTS"},"data":[0,0,0,0,0,0,0,0,0,0,0,0,0,0,0,0,0,0,0,0,0,0,0,0,0,0,0,0,0,0,0,0,0,0,0,0,0,0,0,0,0,0,0,0,0,0,0,0,0,0,0,0,0,0,0,0,0,0,-0.0137,-0.0137,0,-0.0194,-0.0195,-0.0196,-0.024,-0.024,-0.0241,-0.0241,-0.0336,-0.0338,-0.0341,0,0,0,0,0,0,0,0,0,0,0,0,0,-0.0111,-0.0111,-0.0137,-0.0137,-0.0138,-0.0194,-0.0195,-0.0196,-0.024,-0.024,-0.0241,-0.0241,-0.0335,-0.0338,-0.0341,0,0,0,0,0,0,0,0,0,0,0,0,0,-0.0142,-0.0111,-0.0136,-0.0166,-0.0169,-0.0194,-0.0195,-0.0196,-0.024,-0.0241,-0.0241,-0.0241,-0.0335,-0.0338,-0.0341,-0.0353,0,0,-0.0351,-0.0353,0,0,0,0,0,0,0,0,-0.014,-0.0143,-0.0161,-0.0164,-0.0167,-0.021,-0.0221,-0.025,-0.024,-0.0214,-0.0241,-0.0242,-0.0296,-0.0303,-0.0314,-0.0357,-0.0361,-0.0352,-0.0354,-0.0355,-0.0356,0,0,0,0,0,0,0,-0.0138,-0.0141,-0.0161,-0.0161,-0.0165,-0.0192,-0.0197,-0.0227,-0.0254,-0.0217,-0.022,-0.0224,-0.0298,-0.031,-0.0316,-0.0363,-0.0352,-0.0355,-0.0357,-0.0358,-0.043,-0.043,0,0,0,0,0,0,-0.0125,-0.0139,-0.0159,-0.0162,-0.0153,-0.0192,-0.0197,-0.0196,-0.0253,-0.0261,-0.0224,-0.0226,-0.0304,-0.0312,-0.032,-0.0332,-0.0355,-0.0358,-0.036,-0.043,-0.043,-0.043,0,0,0,0,0,0,-0.0124,-0.0126,-0.0156,-0.0151,-0.0157,-0.0191,-0.0191,-0.0197,-0.0209,-0.0257,-0.0267,-0.0228,-0.0305,-0.0315,-0.0344,-0.0336,-0.036,-0.0363,-0.043,-0.043,-0.043,-0.036,0,0,0,0,0,0,-0.0123,-0.0126,-0.0122,-0.015,-0.0157,-0.0163,-0.019,-0.0198,-0.021,-0.0214,-0.0264,-0.0273,-0.0306,-0.0338,-0.0347,-0.0341,-0.0366,-0.043,-0.043,-0.043,-0.0362,-0.0357,-0.0353,0,0,0,0,0,-0.0122,-0.011,-0.0121,-0.0124,-0.015,-0.0162,-0.0168,-0.0196,-0.021,-0.0209,-0.0245,-0.0272,-0.0343,-0.0341,-0.0351,-0.0346,-0.043,-0.043,-0.043,-0.0364,-0.0358,-0.0353,0,0,0,0,0,0,-0.0095,-0.0114,-0.0127,-0.0121,-0.0137,-0.0169,-0.0171,-0.019,-0.0218,-0.0222,-0.027,-0.0282,-0.0305,-0.0336,-0.0332,-0.0367,-0.0392,-0.0393,-0.0338,-0.0333,-0.0328,-0.0311,-0.0368,0,0,0,0,0,-0.0087,-0.0085,-0.0107,-0.0103,-0.0108,-0.0139,-0.0148,-0.0165,-0.0193,-0.0205,-0.0241,-0.0279,-0.0312,-0.0329,-0.0363,-0.038,-0.0408,-0.0385,-0.038,-0.0376,-0.0369,-0.0405,-0.0402,-0.0429,-0.0429,-0.0429,0,0,-0.0076,-0.0086,-0.0085,-0.0098,-0.0114,-0.011,-0.0146,-0.0152,-0.0152,-0.0211,-0.0224,-0.0265,-0.0314,-0.0334,-0.0347,-0.0358,-0.0383,-0.0376,-0.0371,-0.0367,-0.0404,-0.0401,-0.0399,-0.0429,-0.0429,-0.0429,0,0,-0.0048,-0.006,-0.0046,-0.0055,-0.0071,-0.0088,-0.0086,-0.0114,-0.0129,-0.0147,-0.019,-0.0223,-0.0271,-0.0303,-0.0326,-0.0316,-0.0358,-0.033,-0.0291,-0.0325,-0.0323,-0.0321,-0.0346,-0.0348,-0.0326,-0.0326,-0.0326,0,-0.0034,-0.0019,-0.0045,-0.0033,-0.0033,-0.0072,-0.0055,-0.0074,-0.0109,-0.0118,-0.0141,-0.0212,-0.0255,-0.0281,-0.028,-0.0305,-0.0329,-0.0305,-0.0317,-0.0316,-0.0316,-0.0343,-0.0345,-0.0322,-0.0323,-0.0323,-0.0323,0,0.0005,0.0016,0.0024,0.0027,0.0023,0.0031,0.0006,-0.0003,-0.0028,-0.0053,-0.0085,-0.0146,-0.0187,-0.0209,-0.0244,-0.0262,-0.0281,-0.0306,-0.0326,-0.0309,-0.0338,-0.0342,-0.0318,-0.0319,-0.032,-0.0321,0,0,0.0041,0.0051,0.0054,0.0069,0.0057,0.0062,0.0063,0.0054,0.0062,0.001,0.0012,-0.0061,-0.0099,-0.0128,-0.0178,-0.0213,-0.0235,-0.0253,-0.0257,-0.0269,-0.0303,-0.0331,-0.0338,-0.0262,-0.0262,-0.0263,-0.0322,0,0.008,0.0122,0.0111,0.0149,0.017,0.0141,0.0152,0.0135,0.0109,0.01,0.0028,0.0007,-0.0066,-0.008,-0.0129,-0.0204,-0.0242,-0.0216,-0.0327,-0.033,-0.035,-0.0343,-0.0307,-0.0358,-0.0326,-0.0327,-0.0327,0,0.0123,0.0147,0.0194,0.0221,0.0228,0.0242,0.0254,0.0257,0.0227,0.0208,0.0162,0.0107,0.0048,-0.0013,-0.0138,-0.0117,-0.0204,-0.0269,-0.0273,-0.0326,-0.0365,-0.0374,-0.0366,-0.0334,-0.0333,-0.0333,-0.0332,0,0.0168,0.0205,0.0247,0.0255,0.0277,0.0293,0.0303,0.029,0.031,0.0278,0.0297,0.0195,0.0169,0.0043,-0.0107,-0.0118,-0.0243,-0.0274,-0.0384,-0.0386,-0.0391,-0.0394,-0.0364,-0.0364,-0.0364,-0.0364,-0.0363,0,0.0216,0.0249,0.0275,0.0298,0.0359,0.0349,0.0402,0.0397,0.0406,0.0441,0.036,0.0359,0.0182,0.0084,-0.0069,-0.0235,-0.0219,-0.0374,-0.0404,-0.0366,-0.0365,-0.0376,-0.0376,-0.0366,-0.0365,-0.0365,-0.0364,0,0.0256,0.027,0.0324,0.0362,0.0382,0.0424,0.0484,0.0518,0.0526,0.0574,0.0576,0.049,0.0363,0.0183,-0.0021,-0.0168,-0.0335,-0.0402,-0.0343,-0.0366,-0.0463,-0.0459,-0.0517,-0.0519,-0.052,-0.0521,-0.0522,0,0.0278,0.0308,0.0377,0.0416,0.0437,0.05,0.0546,0.0573,0.0604,0.0645,0.0663,0.0581,0.0516,0.022,-0.0055,-0.0307,-0.0346,-0.045,-0.0473,-0.0455,-0.0479,-0.0473,-0.0468,-0.0448,-0.0448,-0.0448,-0.0448,0,0.0316,0.0338,0.0386,0.0467,0.0526,0.0599,0.0656,0.0719,0.0751,0.0807,0.0824,0.0792,0.0529,0.0268,-0.0072,-0.0251,-0.0406,-0.0462,-0.0456,-0.0417,-0.0395,-0.0417,-0.0413,-0.045,-0.045,-0.045,-0.045,-0.045,0.0336,0.0375,0.0429,0.051,0.0582,0.0665,0.0749,0.0817,0.0905,0.1,0.0933,0.0923,0.0622,0.0207,-0.0107,-0.0419,-0.0419,-0.0525,-0.0522,-0.0519,-0.0503,-0.0485,-0.0553,-0.0554,-0.0554,-0.0554,-0.0555,0,0.0332,0.0377,0.046,0.055,0.0635,0.0672,0.0794,0.088,0.1006,0.1092,0.1121,0.0879,0.06,0.028,-0.0183,-0.0482,-0.0494,-0.0564,-0.051,-0.0507,-0.0504,-0.0486,-0.0532,-0.0533,-0.0533,-0.0534,0,0,0.0321,0.0381,0.0429,0.0558,0.0641,0.0764,0.0853,0.0993,0.1086,0.1185,0.1204,0.1145,0.0736,0.0411,0.0004,-0.0255,-0.0308,-0.0306,-0.0294,-0.0179,-0.0173,-0.0457,-0.0423,0,0,0,0,0]}],[{"header":{"parameterUnit":"m.s-1","parameterCategory":2,"la1":30.2991,"la2":30.254,"lo1":-89.0895,"lo2":-89.0444,"dy":0.0017,"dx":0.0017,"nx":28,"ny":28,"refTime":"2025-02-08T03:00:00:Z","depth":"4","parameterNumber":2,"parameterNumberName":"U-component_of_CURRENTS"},"data":[0,0,0,0,0,0,0,0,0,0,0,0,0,0,0,0,0,0,0,0,0,0,0,0,0,0,0,0,0,0,0,0,0,0,0,0,0,0,0,0,0,0,0,0,0,0,0,0,0,0,0,0,0,0,0,0,0,0,0.1394,0.1395,0,0.145,0.1451,0.1451,0.15,0.1501,0.1502,0.1502,0.1559,0.156,0.156,0,0,0,0,0,0,0,0,0,0,0,0,0,0.1308,0.1309,0.1394,0.1395,0.1396,0.145,0.1451,0.1451,0.15,0.1501,0.1502,0.1503,0.1559,0.1559,0.156,0,0,0,0,0,0,0,0,0,0,0,0,0,0.135,0.1309,0.1394,0.1429,0.1433,0.145,0.1451,0.1451,0.15,0.1501,0.1502,0.1503,0.1558,0.1559,0.1561,0.1544,0,0,0.1564,0.1565,0,0,0,0,0,0,0,0,0.1348,0.1353,0.1423,0.1426,0.1431,0.1472,0.1441,0.1483,0.1499,0.1471,0.1502,0.1504,0.153,0.1534,0.1538,0.1546,0.1549,0.1564,0.1565,0.1565,0.1566,0,0,0,0,0,0,0,0.1345,0.1351,0.1414,0.1424,0.1429,0.1434,0.1441,0.1449,0.1492,0.1474,0.1478,0.1488,0.1532,0.1537,0.154,0.155,0.1564,0.1565,0.1566,0.1566,0.1646,0.1647,0,0,0,0,0,0,0.1343,0.1348,0.1412,0.1416,0.1394,0.1435,0.1443,0.1455,0.1492,0.1499,0.1487,0.149,0.1534,0.1539,0.1542,0.1615,0.1565,0.1566,0.1567,0.1644,0.1646,0.1648,0,0,0,0,0,0,0.1341,0.1348,0.141,0.1385,0.1394,0.1436,0.1449,0.1456,0.1492,0.1502,0.1509,0.152,0.1536,0.1541,0.1578,0.1614,0.1567,0.1568,0.1643,0.1645,0.1647,0.1702,0,0,0,0,0,0,0.1338,0.1347,0.1365,0.1385,0.1395,0.1441,0.1448,0.1456,0.1495,0.1501,0.1532,0.1537,0.1537,0.1576,0.1579,0.1614,0.1569,0.1641,0.1644,0.1646,0.1698,0.1705,0.1712,0,0,0,0,0,0.1335,0.135,0.1366,0.1375,0.1416,0.1442,0.1448,0.1479,0.1496,0.1515,0.1539,0.1537,0.1595,0.1578,0.1581,0.1618,0.164,0.1643,0.1646,0.1695,0.1704,0.1711,0,0,0,0,0,0,0.1322,0.1357,0.1375,0.1402,0.1431,0.1452,0.1476,0.1494,0.1527,0.1542,0.155,0.1556,0.1601,0.1601,0.1581,0.1649,0.1619,0.1623,0.1656,0.1664,0.1671,0.1669,0.157,0,0,0,0,0,0.1328,0.1351,0.1383,0.1407,0.1426,0.1456,0.1476,0.1498,0.1524,0.1542,0.1565,0.159,0.161,0.1631,0.1644,0.1679,0.1687,0.1707,0.1714,0.172,0.1721,0.1766,0.1777,0.1658,0.1658,0.1658,0,0,0.133,0.1353,0.1367,0.1407,0.1434,0.1459,0.1471,0.151,0.1537,0.154,0.1593,0.1611,0.1623,0.1664,0.1685,0.1674,0.176,0.1724,0.1729,0.1727,0.177,0.1782,0.1792,0.166,0.166,0.166,0,0,0.1333,0.1369,0.1388,0.1416,0.1462,0.148,0.1498,0.1539,0.157,0.1613,0.1625,0.1668,0.17,0.1721,0.1732,0.1783,0.1789,0.1796,0.1837,0.1881,0.1891,0.19,0.1935,0.1946,0.1806,0.1806,0.1806,0,0.1337,0.1364,0.1398,0.1423,0.145,0.1492,0.1518,0.1549,0.1599,0.1629,0.164,0.1713,0.1726,0.1776,0.1799,0.18,0.1823,0.1804,0.189,0.1899,0.1907,0.1941,0.1953,0.1809,0.1809,0.1809,0.1808,0,0.1348,0.138,0.1397,0.1443,0.1475,0.1507,0.1552,0.1598,0.1642,0.1673,0.1746,0.1773,0.1821,0.1836,0.1833,0.1904,0.1902,0.1888,0.1868,0.1922,0.1954,0.1966,0.1814,0.1812,0.1812,0.1811,0,0,0.1322,0.1391,0.1399,0.1427,0.1491,0.1516,0.1573,0.1632,0.1683,0.1741,0.1809,0.1854,0.1889,0.1903,0.1921,0.1962,0.2043,0.1958,0.1959,0.1991,0.2146,0.2022,0.2022,0.2051,0.2054,0.2055,0.2148,0,0.1323,0.1369,0.1405,0.1454,0.1482,0.1544,0.1594,0.1658,0.1719,0.1797,0.1851,0.192,0.1909,0.1956,0.1993,0.2035,0.2075,0.2019,0.2089,0.2091,0.1973,0.2031,0.2062,0.2156,0.2159,0.2161,0.2162,0,0.1316,0.135,0.1397,0.1471,0.1492,0.1533,0.1633,0.1685,0.1794,0.185,0.193,0.1977,0.2063,0.2043,0.2139,0.2109,0.2132,0.2152,0.2156,0.2026,0.1988,0.2089,0.2183,0.2181,0.218,0.2178,0.2177,0,0.127,0.1342,0.1381,0.1407,0.1496,0.1544,0.1605,0.1709,0.177,0.1903,0.1968,0.2059,0.2135,0.2177,0.2222,0.22,0.2314,0.2286,0.2191,0.2183,0.2242,0.2232,0.2344,0.2344,0.2344,0.2343,0.2343,0,0.1243,0.1276,0.1373,0.1391,0.1458,0.1535,0.1621,0.17,0.1822,0.1898,0.2002,0.2073,0.2176,0.2247,0.2261,0.2263,0.235,0.2206,0.2201,0.2264,0.2255,0.2251,0.2239,0.2347,0.2346,0.2345,0.2345,0,0.1181,0.1243,0.129,0.1393,0.1435,0.1488,0.1625,0.1684,0.1815,0.1923,0.1977,0.2121,0.2217,0.2288,0.2375,0.231,0.2327,0.2301,0.2379,0.2375,0.2157,0.2147,0.2207,0.2203,0.22,0.2198,0.2196,0,0.1149,0.1169,0.1277,0.1315,0.1367,0.1463,0.1528,0.1669,0.1731,0.1928,0.1967,0.2122,0.2199,0.2222,0.2302,0.233,0.2297,0.2287,0.2199,0.2155,0.2145,0.214,0.2134,0.2191,0.219,0.2189,0.2189,0,0.1077,0.1126,0.1166,0.1246,0.1318,0.1388,0.1494,0.1531,0.1695,0.1831,0.1919,0.1983,0.2089,0.215,0.2193,0.22,0.2283,0.2255,0.226,0.2177,0.2136,0.2128,0.2126,0.2178,0.218,0.2181,0.2181,0,0.1021,0.1035,0.1094,0.1161,0.1242,0.1286,0.1358,0.144,0.1523,0.1738,0.1766,0.1927,0.2068,0.2084,0.212,0.2127,0.209,0.2007,0.2024,0.2037,0.1937,0.1858,0.1817,0,0,0,0,0,0.0958,0.0963,0.1007,0.1063,0.114,0.1191,0.1318,0.1393,0.1557,0.1575,0.1666,0.1755,0.1837,0.1919,0.1893,0.2045,0.2092,0.2005,0.2003,0.212,0.2132,0.2029,0,0,0,0,0,0,0.0909,0.0939,0.0963,0.0965,0.0992,0.1062,0.1139,0.1255,0.1273,0.1451,0.1504,0.1641,0.1743,0.1829,0.1854,0.1879,0.1842,0.2107,0.2103,0.2113,0.2124,0.2134,0.2032,0,0,0,0,0]},{"header":{"parameterUnit":"m.s-1","parameterCategory":2,"la1":30.2991,"la2":30.254,"lo1":-89.0895,"lo2":-89.0444,"dy":0.0017,"dx":0.0017,"nx":28,"ny":28,"refTime":"2025-02-08T03:00:00:Z","depth":"4","parameterNumber":3,"parameterNumberName":"V-component_of_CURRENTS"},"data":[0,0,0,0,0,0,0,0,0,0,0,0,0,0,0,0,0,0,0,0,0,0,0,0,0,0,0,0,0,0,0,0,0,0,0,0,0,0,0,0,0,0,0,0,0,0,0,0,0,0,0,0,0,0,0,0,0,0,-0.0071,-0.0071,0,-0.0106,-0.0106,-0.0107,-0.014,-0.0141,-0.0141,-0.0141,-0.0201,-0.0202,-0.0204,0,0,0,0,0,0,0,0,0,0,0,0,0,-0.0063,-0.0063,-0.0071,-0.0071,-0.0072,-0.0106,-0.0106,-0.0107,-0.014,-0.0141,-0.0141,-0.0141,-0.0201,-0.0202,-0.0204,0,0,0,0,0,0,0,0,0,0,0,0,0,-0.008,-0.0063,-0.0071,-0.0092,-0.0094,-0.0106,-0.0106,-0.0107,-0.014,-0.0141,-0.0141,-0.0142,-0.02,-0.0202,-0.0204,-0.0204,0,0,-0.021,-0.0211,0,0,0,0,0,0,0,0,-0.0079,-0.008,-0.0089,-0.0091,-0.0093,-0.0119,-0.0126,-0.0141,-0.014,-0.0123,-0.0141,-0.0142,-0.0175,-0.0179,-0.0185,-0.0207,-0.021,-0.021,-0.0211,-0.0212,-0.0212,0,0,0,0,0,0,0,-0.0077,-0.0079,-0.0085,-0.0089,-0.0092,-0.011,-0.0113,-0.0129,-0.0146,-0.0125,-0.0127,-0.013,-0.0177,-0.0183,-0.0187,-0.021,-0.021,-0.0212,-0.0213,-0.0213,-0.0247,-0.0247,0,0,0,0,0,0,-0.007,-0.0077,-0.0084,-0.0086,-0.0087,-0.011,-0.0113,-0.011,-0.0146,-0.0151,-0.0129,-0.0131,-0.018,-0.0184,-0.0189,-0.019,-0.0212,-0.0214,-0.0215,-0.0247,-0.0247,-0.0247,0,0,0,0,0,0,-0.0069,-0.007,-0.0083,-0.0083,-0.0086,-0.0109,-0.0106,-0.0111,-0.0119,-0.0149,-0.0155,-0.0133,-0.018,-0.0186,-0.0201,-0.0193,-0.0214,-0.0216,-0.0248,-0.0247,-0.0247,-0.0194,0,0,0,0,0,0,-0.0069,-0.0069,-0.0067,-0.0082,-0.0085,-0.0084,-0.0106,-0.0111,-0.012,-0.0123,-0.0154,-0.0161,-0.0181,-0.0198,-0.0203,-0.0196,-0.0218,-0.0248,-0.0247,-0.0247,-0.0196,-0.0192,-0.0188,0,0,0,0,0,-0.0068,-0.0057,-0.0066,-0.0067,-0.008,-0.0084,-0.0087,-0.0107,-0.0119,-0.0118,-0.014,-0.016,-0.0199,-0.0199,-0.0205,-0.0198,-0.0248,-0.0248,-0.0247,-0.0198,-0.0193,-0.0188,0,0,0,0,0,0,-0.0051,-0.006,-0.007,-0.0062,-0.0072,-0.0089,-0.009,-0.0104,-0.012,-0.0124,-0.0155,-0.0162,-0.0173,-0.0193,-0.0192,-0.0208,-0.0227,-0.0228,-0.0188,-0.0183,-0.018,-0.0165,-0.0219,0,0,0,0,0,-0.0045,-0.0041,-0.0054,-0.0048,-0.0051,-0.0071,-0.0076,-0.0088,-0.0103,-0.0112,-0.0134,-0.0158,-0.0175,-0.0184,-0.0203,-0.0209,-0.0246,-0.021,-0.0207,-0.0203,-0.0196,-0.0245,-0.0245,-0.0245,-0.0245,-0.0245,0,0,-0.0038,-0.0042,-0.004,-0.0044,-0.0054,-0.0047,-0.0075,-0.0078,-0.0071,-0.0115,-0.0117,-0.0145,-0.0174,-0.0181,-0.0188,-0.0197,-0.0224,-0.0202,-0.0199,-0.0194,-0.0245,-0.0245,-0.0245,-0.0245,-0.0245,-0.0245,0,0,-0.0014,-0.0022,-0.0009,-0.0012,-0.0021,-0.003,-0.0029,-0.0045,-0.0054,-0.006,-0.009,-0.0111,-0.0138,-0.0155,-0.0167,-0.0153,-0.0203,-0.0163,-0.013,-0.0178,-0.0179,-0.018,-0.0233,-0.0239,-0.016,-0.016,-0.016,0,-0.0005,0.0012,-0.0006,0.0007,0.0012,-0.0019,0.0001,-0.0009,-0.0029,-0.0034,-0.0054,-0.0099,-0.0123,-0.0133,-0.0127,-0.0143,-0.0184,-0.0144,-0.0173,-0.0175,-0.0177,-0.0232,-0.0239,-0.0158,-0.0158,-0.0158,-0.0158,0,0.003,0.0043,0.0052,0.0061,0.0062,0.0073,0.006,0.0057,0.0038,0.0021,-0.0,-0.0041,-0.0069,-0.008,-0.0098,-0.0117,-0.0147,-0.0163,-0.0183,-0.0173,-0.0232,-0.0241,-0.0154,-0.0155,-0.0156,-0.0156,0,0,0.0053,0.0073,0.0076,0.0094,0.0093,0.0101,0.0112,0.0113,0.0114,0.008,0.0072,0.004,0.0003,-0.0013,-0.0048,-0.0085,-0.0133,-0.0124,-0.0128,-0.0174,-0.0251,-0.0225,-0.0232,-0.016,-0.0161,-0.0162,-0.029,0,0.0087,0.0129,0.0128,0.0169,0.019,0.0175,0.0189,0.0182,0.0158,0.0139,0.0089,0.0064,0.0033,0.0012,-0.0029,-0.0109,-0.0152,-0.0098,-0.0256,-0.0261,-0.0236,-0.0239,-0.0165,-0.0296,-0.0298,-0.03,-0.0301,0,0.0122,0.0147,0.0194,0.0228,0.0236,0.0253,0.0264,0.027,0.0236,0.0214,0.0173,0.0121,0.0067,0.0033,-0.0096,-0.0064,-0.0147,-0.0213,-0.022,-0.0216,-0.025,-0.0308,-0.0317,-0.0316,-0.0315,-0.0314,-0.0313,0,0.015,0.0195,0.0236,0.0247,0.0276,0.0294,0.0305,0.029,0.0294,0.0252,0.0234,0.0157,0.0107,0.0002,-0.0124,-0.0121,-0.0278,-0.0295,-0.0352,-0.0353,-0.0362,-0.036,-0.0388,-0.0388,-0.0387,-0.0387,-0.0386,0,0.0186,0.022,0.0254,0.0276,0.0325,0.0329,0.036,0.0357,0.0339,0.0342,0.0271,0.0244,0.0096,-0.001,-0.0123,-0.026,-0.0283,-0.0346,-0.0379,-0.0339,-0.0332,-0.037,-0.0366,-0.0392,-0.0391,-0.039,-0.0389,0,0.0206,0.0229,0.0279,0.0322,0.0339,0.0369,0.0403,0.0416,0.0398,0.0393,0.038,0.0287,0.0161,0.001,-0.0174,-0.0255,-0.039,-0.0434,-0.0383,-0.0413,-0.0439,-0.0431,-0.0516,-0.0516,-0.0516,-0.0516,-0.0516,0,0.0218,0.0245,0.0309,0.0336,0.0357,0.0401,0.043,0.0443,0.0456,0.0426,0.0423,0.0307,0.0233,-0.0003,-0.0164,-0.0383,-0.0405,-0.0485,-0.0451,-0.0425,-0.045,-0.0442,-0.0434,-0.0516,-0.0516,-0.0516,-0.0516,0,0.023,0.0251,0.0289,0.0352,0.0394,0.045,0.0492,0.0514,0.0524,0.0505,0.0466,0.0347,0.0203,0.002,-0.0152,-0.0306,-0.0437,-0.0486,-0.0487,-0.0456,-0.0427,-0.0449,-0.0442,-0.0516,-0.0516,-0.0516,-0.0516,0,0.0228,0.0253,0.0299,0.0361,0.0418,0.0483,0.0511,0.0538,0.0557,0.0535,0.0519,0.0372,0.0278,0.0058,-0.0099,-0.0247,-0.0282,-0.0328,-0.0338,-0.034,-0.024,-0.0174,-0.0213,0,0,0,0,0,0.022,0.0251,0.0303,0.0376,0.0438,0.0481,0.0544,0.0566,0.0586,0.0574,0.0554,0.0432,0.0212,0.0108,-0.0033,-0.0115,-0.0323,-0.0288,-0.0384,-0.0517,-0.0517,-0.0425,0,0,0,0,0,0,0.0209,0.0253,0.0297,0.0381,0.0435,0.051,0.056,0.0577,0.0576,0.0571,0.046,0.0398,0.0182,0.0295,-0.0035,-0.0084,-0.0163,-0.0396,-0.0399,-0.0517,-0.0517,-0.0517,-0.0423,0,0,0,0,0]}]]